Theta_e
280 280 280 282 284 284 287 294 296 296 295 296 297 301 303 314 314 313 312 311 309 308
278 278 279 280 281 282 285 288 295 296 294 295 295 296 300 303 313 313 313 311 309 308
277 278 278 278 278 280 283 285 289 294 294 294 293 295 298 299 311 312 312 311 309 307
276 275 276 277 278 279 280 284 285 291 294 293 292 292 293 296 309 310 310 310 307 305
274 275 274 275 276 278 278 280 283 284 290 292 291 291 291 293 297 310 308 308 307 305
272 273 273 274 274 276 277 278 279 281 284 291 291 291 291 291 298 308 309 308 306 305
271 271 271 273 274 274 276 277 277 280 283 287 290 289 290 290 294 301 309 309 306 305
271 271 271 271 272 273 276 277 277 277 278 283 287 289 289 290 292 295 308 306 306 306
271 270 270 271 272 274 274 276 276 276 278 279 283 287 291 291 290 293 304 304 305 304
270 269 269 270 270 270 271 274 276 276 278 279 282 287 291 290 291 292 304 304 303 301
267 267 268 268 268 269 270 272 275 276 278 281 286 290 291 291 291 292 302 303 303 300
266 265 266 265 266 268 268 270 272 277 279 280 286 290 290 291 289 291 299 300 301 300
265 263 263 265 265 267 267 269 271 276 278 281 283 287 289 291 290 293 297 297 297 295
263 263 265 268 269 268 268 270 270 275 277 279 283 285 290 291 290 296 296 296 296 297
Wind_Speed
20 14 15 17 15 12 15 10 9 6 6 14 15 16 21 14 12 18 18 23 19 13
19 19 18 20 18 14 17 16 11 10 7 10 11 15 14 13 21 17 21 20 20 16
22 19 19 19 19 19 18 18 21 11 5 9 10 14 13 11 21 20 17 17 23 19
17 22 20 17 18 18 18 18 19 18 9 8 8 11 12 16 20 23 20 20 24 23
21 21 19 20 20 17 17 17 16 16 17 9 9 7 13 19 13 23 24 22 25 25
20 20 20 19 22 20 19 16 19 18 17 10 7 8 12 15 17 16 23 23 25 24
21 21 20 19 20 19 19 16 17 18 16 16 10 8 11 14 14 19 21 25 25 24
22 21 20 20 19 20 19 13 17 18 18 17 15 8 9 12 17 15 20 22 25 25
22 22 21 20 18 20 18 14 15 18 18 18 14 16 19 18 15 15 22 22 23 23
22 22 22 21 20 20 19 17 16 17 18 18 18 27 24 21 15 16 19 21 21 17
24 23 23 22 20 20 17 18 15 16 17 17 17 24 21 20 15 16 22 22 23 21
23 24 23 21 21 19 17 16 16 15 17 16 13 15 17 18 13 14 19 20 22 22
23 23 24 23 21 18 16 17 15 17 15 17 14 15 23 20 10 14 13 17 19 25
23 24 23 20 17 16 15 15 16 15 14 14 12 13 24 24 13 12 13 15 15 15
Wind_Direction
309 299 308 305 309 303 312 275 254 260 298 288 291 292 311 191 193 182 178 181 177 178
310 306 304 305 308 301 301 313 250 221 231 290 299 287 280 306 182 194 188 178 179 180
307 304 306 297 300 301 297 299 307 258 251 279 321 305 305 301 249 183 191 180 174 177
306 309 296 294 298 295 303 305 310 309 241 238 265 298 287 282 246 177 181 182 176 172
316 303 311 294 291 293 299 295 283 296 293 228 243 283 298 298 288 201 181 180 178 173
311 307 302 304 300 297 291 289 289 290 294 240 237 262 276 294 259 219 177 179 173 173
311 305 299 295 296 291 286 282 283 285 281 287 246 242 271 283 287 271 177 180 175 175
308 304 300 299 293 290 276 269 277 277 272 274 273 256 267 285 293 280 196 182 180 178
310 305 301 298 297 293 305 272 265 267 266 263 263 265 260 267 283 284 210 178 177 175
308 310 306 301 295 292 292 291 266 263 265 260 255 255 257 262 270 258 226 175 177 168
312 308 307 301 294 290 289 285 279 267 265 259 252 243 245 254 267 254 236 176 180 168
318 310 306 299 293 287 284 281 280 266 265 265 243 247 261 259 265 258 209 171 177 173
315 307 301 294 289 283 278 275 272 268 262 256 255 263 260 258 263 233 189 167 175 174
312 304 293 292 285 273 269 271 272 265 268 272 264 264 255 257 253 206 187 169 172 175